{"data":{"norad_id":61980,"epoch":"2026-09-21T02:48:34.211232Z","epoch_age_seconds":132284,"freshness":"FRESH","line1":"1 61980U 24210X   26264.11706263  .00009669  00000+0  36032-3 0  9995","line2":"2 61980  43.0009 156.5272 0001626 265.0244  95.0422 15.27589321104716","mean_motion":15.27589321,"eccentricity":0.0001626,"inclination_deg":43.0009,"raan_deg":156.5272,"arg_perigee_deg":265.0244,"mean_anomaly_deg":95.0422,"bstar":0.00036032,"rev_number":10471,"period_min":94.266173519552,"perigee_km":481.90556143336,"apogee_km":484.13681007536,"semimajor_km":6861.1581857544,"source":"CELESTRAK","updated_at":"2026-09-22T09:00:49.481409Z"}}